Regional Weather Roundup
Issued by NWS Binghamton, NY

Home | Current Version | Previous Version | Text Only | Print | Product List | Glossary On
Versions: 1 2 3 4 5 6 7 8 9 10 11 12 13 14 15 16 17 18 19 20 21 22 23 24 25 26 27 28 29 30 31 32 33 34 35 36 37 38 39 40 41 42 43 44 45 46 47 48 49 50
000
ASUS41 KBGM 191610
RWRBGM
RWRBGM
BINGHAMTON REGIONAL WEATHER ROUNDUP
NATIONAL WEATHER SERVICE BINGHAMTON NY
1200 PM EDT FRI SEP 19 2014

Note: "fair" indicates few or no clouds below 12,000 feet with no
significant weather and/or obstructions to visibility.

* = Station(s) that does not report precipitation, such as rain,
snow, etc, also no thunder or fog.

!NYZ009-015>018-022>025-036-037-044>046-055>057-062-191700
...CENTRAL NEW YORK...

CITY           SKY/WX    TMP DP  RH WIND       PRES   REMARKS
BINGHAMTON     SUNNY     51  39  63 NE7       30.34S
CORTLAND       FAIR      54  39  58 CALM      30.36S
DANSVILLE      SUNNY     56  40  55 SE6       30.34S
ELMIRA         SUNNY     56  43  61 NE7       30.34F
ITHACA         SUNNY     56  39  52 CALM      30.35F
HAMILTON       MOSUNNY   55  41  58 SW3       30.35S
MONTICELLO     SUNNY     54  39  58 CALM      30.35S
NORWICH        MOSUNNY   52  37  58 CALM      30.36S
ONEONTA        SUNNY     52  34  50 CALM      30.34R
PENN YAN       SUNNY     55  39  54 NE5       30.36R
ROME           SUNNY     52  36  54 S9        30.39R
SIDNEY         SUNNY     57  45  62 CALM      30.34S
SYRACUSE       MOSUNNY   55  37  50 MISG      30.37R
$$

!PAZ038>040-043-044-047-048-072-191700
...NORTHEAST PENNSYLVANIA...

CITY           SKY/WX    TMP DP  RH WIND       PRES   REMARKS
HAZLETON       PTSUNNY   59  46  63 CALM      30.34S
SCRANTON       SUNNY     60  42  51 N5        30.32F
TOWANDA*       SUNNY     59  37  44 NW3       30.34S
$$
&&
KEY
WCI = WIND CHILL INDEX
VSB = VISIBILITY
HX  = HEAT INDEX
$$


USA.gov is the U.S. government's official web portal to all federal, state and local government web resources and services.